Weather History for KPEO - May, 2013

Change the Weather History Date:

Saturday, May 25, 2013

  Actual Average (KITH) Record (KITH)
Temperature  
Mean Temperature 48 °F -  
Max Temperature 55 °F 68 °F 88 °F (1932)
Min Temperature 41 °F 47 °F 26 °F (1956)
Degree Days  
Heating Degree Days 17    
Moisture  
Dew Point 34 °F    
Average Humidity 59    
Maximum Humidity 73    
Minimum Humidity 42    
Precipitation  
Precipitation 0.00 in - - ()
Sea Level Pressure  
Sea Level Pressure 30.15 in    
Wind  
Wind Speed 11 mph (NW)    
Max Wind Speed 20 mph    
Max Gust Speed 32 mph    
Visibility 10 miles    
Events      
Averages and records for this station are not official NWS values.
T = Trace of Precipitation, MM = Missing Value Source: NWS Daily Summary

Daily Weather History Graph

Daily Weather History Graph

Search for Another Location

Airport or City:

Trip Planner

Search our weather history database for the weather conditions in past years. The results will help you decide how hot, cold, wet, or windy it might be!

Date:

Astronomy

May. 25, 2013 Rise Set
Actual Time 5:37 AM EDT 8:33 PM EDT
Civil Twilight 5:03 AM EDT 9:07 PM EDT
Nautical Twilight 4:21 AM EDT 9:50 PM EDT
Astronomical Twilight 3:31 AM EDT 10:40 PM EDT
Moon 9:19 PM EDT (5/25) 6:02 AM EDT (5/25)
Length of Visible Light 16h 03m
Length of Day
14h 56m
Full, 100% of the Moon is Illuminated
May 25
Full
May 31
Last Quarter
Jun 8
New
Jun 16
First Quarter
Jun 23
Full

Hourly Weather History & Observations

Time (EDT) Temp. Windchill Dew Point Humidity Pressure Visibility Wind Dir Wind Speed Gust Speed Precip Events Conditions
12:53 AM 45.0 °F 39.7 °F 36.0 °F 71% 30.16 in 10.0 mi NW 10.4 mph - N/A   Mostly Cloudy
1:53 AM 45.0 °F 40.6 °F 36.0 °F 71% 30.15 in 10.0 mi NW 8.1 mph - N/A   Overcast
2:53 AM 44.1 °F 38.6 °F 35.1 °F 71% 30.14 in 10.0 mi NW 10.4 mph - N/A   Overcast
3:53 AM 44.1 °F 38.6 °F 34.0 °F 68% 30.15 in 10.0 mi NW 10.4 mph 19.6 mph N/A   Overcast
4:53 AM 42.1 °F 36.6 °F 34.0 °F 73% 30.16 in 10.0 mi NW 9.2 mph 21.9 mph N/A   Overcast
5:53 AM 41.0 °F 36.4 °F 33.1 °F 73% 30.15 in 10.0 mi NW 6.9 mph 17.3 mph N/A   Clear
6:53 AM 42.1 °F 37.7 °F 34.0 °F 73% 30.17 in 10.0 mi WNW 6.9 mph 18.4 mph N/A   Clear
7:53 AM 44.1 °F 37.4 °F 34.0 °F 68% 30.17 in 10.0 mi NW 13.8 mph 24.2 mph N/A   Clear
8:53 AM 45.0 °F 38.9 °F 34.0 °F 65% 30.18 in 10.0 mi NNW 12.7 mph 20.7 mph N/A   Overcast
9:53 AM 46.9 °F - 34.0 °F 61% 30.18 in 10.0 mi NW 15.0 mph 25.3 mph N/A   Overcast
10:53 AM 48.9 °F - 36.0 °F 61% 30.18 in 10.0 mi WNW 15.0 mph 20.7 mph N/A   Scattered Clouds
11:53 AM 50.0 °F - 35.1 °F 57% 30.18 in 10.0 mi NW 15.0 mph 25.3 mph N/A   Partly Cloudy
12:53 PM 52.0 °F - 35.1 °F 53% 30.18 in 10.0 mi NW 12.7 mph 24.2 mph N/A   Overcast
1:53 PM 53.1 °F - 33.1 °F 47% 30.17 in 10.0 mi NNW 19.6 mph 27.6 mph N/A   Overcast
2:53 PM 52.0 °F - 33.1 °F 49% 30.16 in 10.0 mi NNW 16.1 mph 32.2 mph N/A   Mostly Cloudy
3:53 PM 53.1 °F - 32.0 °F 45% 30.15 in 10.0 mi NNW 13.8 mph 26.5 mph N/A   Scattered Clouds
4:53 PM 55.0 °F - 33.1 °F 43% 30.14 in 10.0 mi NNW 12.7 mph 24.2 mph N/A   Scattered Clouds
5:53 PM 55.0 °F - 32.0 °F 42% 30.13 in 10.0 mi NW 13.8 mph 26.5 mph N/A   Partly Cloudy
6:53 PM 55.0 °F - 33.1 °F 43% 30.13 in 10.0 mi NW 15.0 mph 24.2 mph N/A   Partly Cloudy
7:53 PM 54.0 °F - 33.1 °F 45% 30.13 in 10.0 mi NW 11.5 mph - N/A   Partly Cloudy
8:53 PM 52.0 °F - 33.1 °F 49% 30.13 in 10.0 mi WNW 5.8 mph - N/A   Partly Cloudy
9:53 PM 50.0 °F - 35.1 °F 57% 30.15 in 10.0 mi NW 11.5 mph 19.6 mph N/A   Clear
10:53 PM 48.9 °F - 35.1 °F 59% 30.14 in 10.0 mi West 9.2 mph 16.1 mph N/A   Partly Cloudy
11:53 PM 46.9 °F - 35.1 °F 63% 30.13 in 10.0 mi WNW 8.1 mph - N/A   Clear